Find Starlink 32873

NORAD ID: 62857 Int'l Des: 2025-022 Owner: SPXS Country: US Constellation: starlink operational
LEOCIRCULAR

当前视图

正在加载3D地球...

About Starlink 32873

Starlink 32873 (NORAD 62857) is a starlink constellation satellite (v2 mini) launched Feb 2, 2025 by SPXS of US. It operates in LEO, CIRCULAR orbit with a mass of 730.00 kg.

即将过境

Passes for default location (London). Set your location on the main map for personalized predictions.

高度历史

Loading altitude history...

两行轨道根数

1 62857U 25022D 26263.57820348 .00011577 00000-0 35325-3 0 9997
2 62857 53.1591 301.1751 0001284 68.5928 291.5212 15.34400146 91780
Epoch: Sep 20, 2026 • Age: 12 hours

当前状态

高度 481.0 km
远地点 / 近地点 N/A
速度 7.62 km/s
星下点 -50.92°S, 158.57°W
发射日期 Feb 2, 2025
运行时间 1.6 years
类型 internet

技术详情

分类 Payload
质量 730.00 kg
干质量 700.00 kg
长度 0.30 m
跨度 29.00 m
形状 ? Box + pan
制造商 SPXS
平台类型 Starlink V2M
阶段状态 In Orbit
所有者/国家 SPXS/US

Most Searched